Hourly Data Report for April 05, 2018

CLYDE RIVER A
NUNAVUT
Current Station Operator: NAVCAN

70°29'09.000" N
68°31'01.000" W
26.50 m
2400804
71090
YCY

Download Data

Hourly Data (April 2018)
Hourly Data Report for April 5, 2018
TIME
LST
Temp Definition
°C
Dew Point Definition
°C
Rel Hum Definition
%
Precip. Amount Definition
mm

Wind Dir Definition
10's deg

Wind Spd Definition
km/h
Visibility Definition
km
Stn Press Definition
kPa
Hmdx Definition


Wind Chill Definition


Weather Definition


00:00 -19.9 -22.7 79 0.0 32 26 16.1 101.82   -32 LegendNANA
01:00 -20.2 -22.9 79 0.0 32 17 16.1 101.83   -30 LegendNANA
02:00 -20.4 -23.8 75 0.0 29 8 16.1 101.83   -27 LegendNANA
03:00 -21.1 -24.3 76 0.0 32 17 16.1 101.84   -31 LegendNANA
04:00 -22.4 -25.4 77 0.0 4 5 16.1 101.86   -27 LegendNANA
05:00 -21.4 -23.7 82 0.0 32 21 14.5 101.88   -32 LegendNANA
06:00 -21.9 -24.3 81 0.0 LegendMM 4 16.1 101.86   -26 LegendNANA
07:00 -21.0 -23.6 80 0.0 32 9 16.1 101.86   -28 LegendNANA
08:00 -20.8 -23.5 79 0.0 32 26 11.3 101.87   -33 LegendNANA
09:00 -19.6 -22.5 78 0.0 33 24 16.1 101.89   -31 LegendNANA
10:00 -19.5 -22.6 77 0.0 33 26 14.5 101.91   -31 LegendNANA
11:00 -18.9 -22.0 77 0.0 33 26 16.1 101.93   -30 LegendNANA
12:00 -18.5 -21.6 77 0.0 32 30 16.1 101.92   -31 LegendNANA
13:00 -18.0 -21.5 74 0.0 33 30 16.1 101.92   -30 LegendNANA
14:00 -18.3 -21.9 74 0.0 33 28 16.1 101.93   -30 LegendNANA
15:00 -18.6 -22.2 74 0.0 32 26 16.1 101.96   -30 LegendNANA
16:00 -19.2 -22.9 73 0.0 32 21 16.1 101.98   -30 LegendNANA
17:00 -20.5 -24.2 73 0.0 31 13 16.1 102.00   -29 LegendNANA
18:00 -22.6 -26.1 74 0.0 31 18 16.1 102.00   -33 LegendNANA
19:00 -23.9 -27.3 74 0.0 30 17 16.1 102.00   -35 LegendNANA
20:00 -25.0 -28.4 74 0.0 30 18 16.1 102.03   -36 LegendNANA
21:00 -24.4 -27.8 74 0.0 30 21 16.1 102.01   -36 LegendNANA
22:00 -24.0 -27.0 77 0.0 31 18 16.1 102.00   -35 LegendNANA
23:00 -23.3 -25.7 81 0.0 30 15 16.1 101.96   -33 LegendNANA

Notes on Data Quality.

Legend

  • E = Estimated
  • M = Missing
  • NA = Not Available*
  • [empty] = Indicates an unobserved value
Date modified: